• In Hungary
  • List of Countries
  • For 7 days
  • Water Temperature
  • Satellite Maps
  • Weather Map
  • News
  • Weather Widgets
  • user-avatar
    Login

    Hourly Weather Myszki

    Today, 20 October, Friday

    Time Temperature Precipitation Wind Pressure Humidity
    00:00 +9°C° 0 mm 3 mps 752 mmHg 87%
    01:00 +8°C° 0 mm 3 mps 752 mmHg 87%
    02:00 +8°C° 0 mm 3 mps 752 mmHg 87%
    03:00 +8°C° 0 mm 3 mps 752 mmHg 87%
    04:00 +8°C° 0 mm 3 mps 752 mmHg 88%
    05:00 +8°C° 0 mm 3 mps 752 mmHg 88%
    06:00 +8°C° 0 mm 3 mps 752 mmHg 88%
    07:00 +8°C° 0 mm 3 mps 752 mmHg 88%
    08:00 +9°C° 0 mm 3 mps 752 mmHg 83%
    09:00 +10°C° 0 mm 3 mps 752 mmHg 78%
    10:00 +11°C° 0 mm 3 mps 752 mmHg 74%
    11:00 +12°C° 0 mm 3 mps 752 mmHg 71%
    12:00 +13°C° 0 mm 3 mps 752 mmHg 69%
    13:00 +14°C° 0 mm 3 mps 752 mmHg 66%
    14:00 +13°C° 0 mm 3 mps 751 mmHg 70%
    15:00 +13°C° 0 mm 2 mps 751 mmHg 74%
    16:00 +13°C° 0 mm 2 mps 751 mmHg 78%
    17:00 +12°C° 0 mm 2 mps 751 mmHg 82%
    18:00 +10°C° 0 mm 2 mps 751 mmHg 85%
    19:00 +9°C° 0 mm 2 mps 751 mmHg 89%
    20:00 +9°C° 0 mm 2 mps 751 mmHg 90%
    21:00 +9°C° 0 mm 2 mps 751 mmHg 92%
    22:00 +9°C° 0 mm 2 mps 751 mmHg 93%
    23:00 +8°C° 0 mm 2 mps 751 mmHg 94%

    Tomorrow, 21 October, Saturday

    Time Temperature Precipitation Wind Pressure Humidity
    00:00 +8°C° 0 mm 2 mps 751 mmHg 95%
    01:00 +8°C° 0 mm 2 mps 750 mmHg 95%
    02:00 +8°C° 0 mm 2 mps 750 mmHg 95%
    03:00 +8°C° 0 mm 2 mps 750 mmHg 95%
    04:00 +8°C° 0 mm 2 mps 750 mmHg 95%
    05:00 +8°C° 0 mm 2 mps 749 mmHg 95%
    06:00 +9°C° 0 mm 2 mps 749 mmHg 94%
    07:00 +9°C° 0 mm 2 mps 749 mmHg 94%
    08:00 +10°C° 0.3 mm 2 mps 749 mmHg 92%
    09:00 +10°C° 0.3 mm 2 mps 749 mmHg 90%
    10:00 +12°C° 0.3 mm 2 mps 749 mmHg 88%
    11:00 +12°C° 0.5 mm 2 mps 749 mmHg 89%
    12:00 +12°C° 0.5 mm 2 mps 749 mmHg 90%
    13:00 +12°C° 0.5 mm 1 mps 749 mmHg 90%
    14:00 +12°C° 0.2 mm 2 mps 749 mmHg 91%
    15:00 +12°C° 0.2 mm 2 mps 748 mmHg 92%
    16:00 +10°C° 0.2 mm 2 mps 748 mmHg 93%
    17:00 +10°C° 0 mm 2 mps 749 mmHg 93%
    18:00 +9°C° 0 mm 3 mps 749 mmHg 94%
    19:00 +9°C° 0 mm 3 mps 749 mmHg 94%
    20:00 +8°C° 0 mm 3 mps 749 mmHg 93%
    21:00 +8°C° 0 mm 3 mps 749 mmHg 93%
    22:00 +8°C° 0 mm 3 mps 750 mmHg 92%
    23:00 +8°C° 0 mm 3 mps 750 mmHg 92%

    Day after tomorrow, 22 October, Sunday

    Time Temperature Precipitation Wind Pressure Humidity
    00:00 +8°C° 0 mm 3 mps 750 mmHg 92%
    01:00 +7°C° 0 mm 3 mps 750 mmHg 92%
    02:00 +7°C° 0 mm 3 mps 750 mmHg 93%
    03:00 +7°C° 0 mm 3 mps 750 mmHg 93%
    04:00 +5°C° 0 mm 3 mps 750 mmHg 94%
    05:00 +5°C° 0 mm 3 mps 750 mmHg 93%
    06:00 +5°C° 0 mm 3 mps 750 mmHg 93%
    07:00 +5°C° 0 mm 4 mps 750 mmHg 92%
    08:00 +6°C° 0 mm 4 mps 750 mmHg 89%
    09:00 +6°C° 0 mm 4 mps 750 mmHg 86%
    10:00 +7°C° 0 mm 4 mps 750 mmHg 83%
    11:00 +8°C° 0 mm 4 mps 749 mmHg 81%
    12:00 +8°C° 0 mm 4 mps 749 mmHg 80%
    13:00 +10°C° 0 mm 4 mps 749 mmHg 79%
    14:00 +10°C° 0 mm 3 mps 749 mmHg 81%
    15:00 +9°C° 0 mm 3 mps 749 mmHg 83%
    16:00 +9°C° 0 mm 3 mps 748 mmHg 85%
    17:00 +9°C° 0.1 mm 3 mps 748 mmHg 87%
    18:00 +8°C° 0.1 mm 3 mps 748 mmHg 88%
    19:00 +8°C° 0.1 mm 3 mps 748 mmHg 89%
    20:00 +8°C° 0.1 mm 3 mps 748 mmHg 89%
    21:00 +8°C° 0.1 mm 3 mps 748 mmHg 89%
    22:00 +8°C° 0.1 mm 3 mps 748 mmHg 90%
    23:00 +8°C° 0.1 mm 3 mps 748 mmHg 90%

    23 October, Monday

    Time Temperature Precipitation Wind Pressure Humidity
    00:00 +8°C° 0.1 mm 3 mps 748 mmHg 90%
    01:00 +8°C° 0.1 mm 3 mps 747 mmHg 91%
    02:00 +8°C° 0 mm 3 mps 747 mmHg 91%
    03:00 +8°C° 0 mm 3 mps 747 mmHg 92%
    04:00 +8°C° 0 mm 2 mps 747 mmHg 92%
    05:00 +8°C° 0.1 mm 2 mps 747 mmHg 92%
    06:00 +8°C° 0.1 mm 3 mps 747 mmHg 92%
    07:00 +8°C° 0.1 mm 3 mps 747 mmHg 92%
    08:00 +8°C° 0.1 mm 3 mps 747 mmHg 90%
    09:00 +9°C° 0.1 mm 3 mps 747 mmHg 88%
    10:00 +9°C° 0.1 mm 3 mps 747 mmHg 86%
    11:00 +10°C° 0.1 mm 2 mps 747 mmHg 84%
    12:00 +10°C° 0.1 mm 2 mps 747 mmHg 82%
    13:00 +12°C° 0.1 mm 2 mps 747 mmHg 80%
    14:00 +10°C° 0.1 mm 2 mps 747 mmHg 82%
    15:00 +10°C° 0.1 mm 2 mps 747 mmHg 84%
    16:00 +9°C° 0.1 mm 2 mps 747 mmHg 86%
    17:00 +9°C° 0.1 mm 2 mps 747 mmHg 87%
    18:00 +8°C° 0.1 mm 2 mps 747 mmHg 88%
    19:00 +8°C° 0.1 mm 2 mps 748 mmHg 89%
    20:00 +7°C° 0.1 mm 2 mps 748 mmHg 89%
    21:00 +7°C° 0.1 mm 2 mps 748 mmHg 89%
    22:00 +7°C° 0.1 mm 2 mps 748 mmHg 89%
    23:00 +7°C° 0 mm 2 mps 748 mmHg 89%

    24 October, Tuesday

    Time Temperature Precipitation Wind Pressure Humidity
    00:00 +6°C° 0 mm 2 mps 749 mmHg 89%
    01:00 +6°C° 0 mm 2 mps 749 mmHg 88%
    02:00 +6°C° 0.1 mm 2 mps 749 mmHg 89%
    03:00 +6°C° 0.1 mm 2 mps 749 mmHg 90%
    04:00 +5°C° 0.1 mm 2 mps 749 mmHg 90%
    05:00 +5°C° 0.1 mm 2 mps 750 mmHg 90%
    06:00 +5°C° 0.1 mm 2 mps 750 mmHg 90%
    07:00 +5°C° 0.1 mm 3 mps 750 mmHg 89%
    08:00 +5°C° 0.1 mm 3 mps 751 mmHg 87%
    09:00 +5°C° 0.1 mm 3 mps 751 mmHg 86%
    10:00 +7°C° 0.1 mm 3 mps 752 mmHg 84%
    11:00 +7°C° 0.2 mm 3 mps 752 mmHg 83%
    12:00 +7°C° 0.2 mm 3 mps 752 mmHg 83%
    13:00 +7°C° 0.2 mm 3 mps 753 mmHg 83%
    14:00 +7°C° 0.3 mm 3 mps 753 mmHg 84%
    15:00 +7°C° 0.3 mm 3 mps 753 mmHg 85%
    16:00 +5°C° 0.3 mm 3 mps 754 mmHg 86%
    17:00 +5°C° 0.2 mm 3 mps 754 mmHg 87%
    18:00 +5°C° 0.2 mm 3 mps 754 mmHg 87%
    19:00 +5°C° 0.2 mm 3 mps 755 mmHg 88%
    20:00 +4°C° 0 mm 3 mps 755 mmHg 87%
    21:00 +4°C° 0 mm 3 mps 755 mmHg 87%
    22:00 +4°C° 0 mm 3 mps 756 mmHg 86%
    23:00 +4°C° 0 mm 3 mps 756 mmHg 86%

    25 October, Wednesday

    Time Temperature Precipitation Wind Pressure Humidity
    00:00 +4°C° 0 mm 3 mps 756 mmHg 86%
    01:00 +3°C° 0 mm 3 mps 756 mmHg 85%
    02:00 +3°C° 0 mm 3 mps 756 mmHg 86%
    03:00 +3°C° 0 mm 3 mps 757 mmHg 86%
    04:00 +3°C° 0 mm 3 mps 757 mmHg 87%
    05:00 +3°C° 0 mm 3 mps 757 mmHg 87%
    06:00 +3°C° 0 mm 3 mps 757 mmHg 87%
    07:00 +2°C° 0 mm 3 mps 757 mmHg 87%
    08:00 +3°C° 0 mm 3 mps 758 mmHg 85%
    09:00 +3°C° 0 mm 3 mps 758 mmHg 83%
    10:00 +4°C° 0 mm 3 mps 758 mmHg 81%
    11:00 +4°C° 0 mm 3 mps 758 mmHg 79%
    12:00 +4°C° 0 mm 3 mps 758 mmHg 78%
    13:00 +5°C° 0 mm 3 mps 758 mmHg 76%
    14:00 +4°C° 0 mm 3 mps 758 mmHg 77%
    15:00 +4°C° 0 mm 3 mps 758 mmHg 78%
    16:00 +4°C° 0 mm 3 mps 758 mmHg 79%
    17:00 +4°C° 0 mm 4 mps 758 mmHg 81%
    18:00 +3°C° 0 mm 4 mps 758 mmHg 83%
    19:00 +3°C° 0 mm 4 mps 757 mmHg 85%
    20:00 +3°C° 0.7 mm 4 mps 757 mmHg 86%
    21:00 +3°C° 0.7 mm 4 mps 757 mmHg 87%
    22:00 +3°C° 0.7 mm 4 mps 757 mmHg 87%
    23:00 +3°C° 0.9 mm 4 mps 757 mmHg 88%
    Show more